Regional Weather Roundup
Issued by NWS Huntsville, AL

Home | Current Version | Previous Version | Text Only | Print | Product List | Glossary On
Versions: 1 2 3 4 5 6 7 8 9 10 11 12 13 14 15 16 17 18 19 20 21 22 23 24 25 26 27 28 29
000
ASUS44 KHUN 302310
RWRHUN

WEATHER ROUNDUP FOR THE TENNESSEE VALLEY
NATIONAL WEATHER SERVICE HUNTSVILLE AL
600 PM CDT THU OCT 30 2014

ALZ001>004-310000-
NORTHWEST ALABAMA

CITY           SKY/WX    TMP DP  RH WIND       PRES   REMARKS
SHOALS AIRPORT CLEAR     62  36  37 NW5       30.05S
$$

ALZ005>007-016-310000-
NORTH CENTRAL ALABAMA

CITY           SKY/WX    TMP DP  RH WIND       PRES   REMARKS
DECATUR AP     CLEAR     56  45  66 CALM      30.04R
HUNTSVILLE AP  CLEAR     61  39  44 N5        30.03R
HUN NWS/UAH      N/A     60  36  40 N3          N/A
MERIDIANVILLE  CLEAR     57  34  41 N3        30.04R
REDSTONE ARSN  CLEAR     58  39  49 N7        30.03R
VINEMONT AP    FAIR      56  41  56 CALM      30.06R
$$

ALZ008>010-310000-
NORTHEAST ALABAMA

CITY           SKY/WX    TMP DP  RH WIND       PRES   REMARKS
ALBERTVILLE    CLEAR     57  45  62 NW5       30.02R
FORT PAYNE     CLEAR     54  39  58 CALM      30.01R
SCOTTSBORO AP  CLEAR     55  45  67 CALM      30.03R
SCOTTSBORO HCN   N/A     59 N/A N/A MISG        N/A
VALLEY HEAD      N/A     54 N/A N/A MISG        N/A
$$

TNZ076-096-097-310000-
SOUTHEASTERN MIDDLE TENNESSEE

CITY           SKY/WX    TMP DP  RH WIND       PRES   REMARKS
TULLAHOMA      CLEAR     54  37  54 NW3       30.06R
WINCHESTER     CLEAR     55  39  54 NW3       30.04S
$$

...SURROUNDING SITES...

CITY           SKY/WX    TMP DP  RH WIND       PRES   REMARKS
ATLANTA        CLEAR     61  36  39 NW7       29.99R
ANNISTON       CLEAR     62  35  36 NW3       30.01S
BIRMINGHAM     CLEAR     61  36  39 NW6       30.04S
CHATTANOOGA    PTCLDY    62  40  44 NE3       30.00S
CORINTH        FAIR      61  41  48 CALM      30.04F
DALTON         CLEAR     55  43  62 CALM      30.00S
GADSDEN        CLEAR     59  36  41 NW3       30.02S
GOLDEN TRNGL   PTCLDY    64  37  36 N5        30.04S
HALEYVILLE     FAIR      55  45  69 CALM      30.06S
JACKSON TN     PTCLDY    57  42  57 CALM      30.04S
MEMPHIS        MOCLDY    66  40  38 CALM      30.04S
MURFREESBORO   FAIR      58  38  47 CALM      30.05S
NASHVILLE      PTCLDY    57  38  48 NE5       30.05S
OXFORD MS      FAIR      57  48  72 CALM      30.07S
ROME           CLEAR     57  42  57 CALM      30.00R
SAVANNAH       CLEAR     55  46  71 CALM      30.05S
TUPELO         CLEAR     63  40  42 N3        30.04S
TUSCALOOSA     CLEAR     63  38  39 N6        30.03S
$$

...GULF COAST WEATHER...

CITY           SKY/WX    TMP DP  RH WIND       PRES   REMARKS
GULFPORT       CLEAR     70  39  32 N5        30.01R
PASCAGOULA     CLEAR     65  40  39 N3        30.01R
MOBILE         PTCLDY    64  41  42 N7        30.02R
GULF SHORES    CLEAR     67  42  41 N3        29.99S
PENSACOLA      PTCLDY    66  44  45 N6        29.98R
DESTIN         CLEAR     69  44  40 N10       29.97R
PANAMA CITY    CLEAR     68  47  48 N7        29.96R
APPALACHICOLA  CLEAR     70  51  51 CALM      29.94R
$$




USA.gov is the U.S. government's official web portal to all federal, state and local government web resources and services.